Wind_Speed
19 19 19 20 22 24 25 25 26 24 26 28 34 33 32 35 38 39 42 44 45 46 49 50 51 53 53 54 55 57 58 58 59 61 64 68 72 77 80 81 82 83 84 87
21 20 21 23 25 26 27 27 28 31 29 33 37 38 38 40 42 44 45 46 48 50 51 53 54 53 54 56 57 58 59 60 62 64 68 72 76 79 80 80 81 82 86 85
16 19 23 24 21 28 31 31 33 36 36 38 40 41 42 43 45 46 47 49 50 51 53 54 53 54 57 58 58 59 60 61 63 67 71 75 78 78 79 80 81 84 84 76
16 21 26 21 24 27 31 32 35 38 40 42 43 45 45 46 47 48 49 51 52 54 54 53 54 56 57 58 59 60 61 63 67 71 75 77 78 81 81 80 83 82 74 69
20 21 23 20 21 26 30 30 33 37 40 42 44 46 47 48 49 50 51 53 54 53 53 54 55 56 57 60 60 60 63 67 70 73 75 76 81 83 81 82 82 75 67 65
20 23 24 23 24 26 29 32 33 36 39 41 44 46 48 48 49 51 52 53 52 52 53 55 56 57 59 59 60 65 67 70 71 74 76 78 83 82 80 80 75 66 63 56
24 26 27 27 28 29 30 34 36 38 39 41 44 46 47 48 50 51 51 51 51 53 54 55 57 59 58 60 65 68 71 71 73 76 77 82 82 80 80 75 66 61 57 46
23 26 29 29 31 33 35 37 40 42 43 45 45 46 46 48 49 49 49 51 53 53 55 57 58 58 59 65 70 71 72 73 75 78 80 82 80 79 74 67 61 56 49 39
25 28 32 34 36 38 39 41 43 44 44 44 45 45 46 47 47 49 51 52 53 56 58 57 58 59 63 69 71 72 74 75 77 78 82 81 79 73 67 60 56 50 42 35
31 33 36 39 40 42 42 43 43 43 43 44 46 46 47 49 51 52 52 54 56 57 57 59 61 65 69 71 73 75 76 77 79 80 80 77 73 66 59 55 50 44 38 33
36 38 40 41 42 43 43 43 42 42 43 44 46 48 50 51 51 52 55 55 56 55 57 59 65 68 69 73 75 75 77 79 80 78 76 71 65 60 54 50 44 40 35 32
40 40 41 42 42 42 42 42 42 43 45 47 49 50 50 51 52 53 54 56 57 58 61 66 67 67 71 74 76 78 79 80 77 74 69 64 58 54 50 44 39 36 33 30
41 41 42 42 41 41 41 42 44 46 47 48 49 50 50 52 54 54 55 58 61 65 67 65 66 69 71 75 77 78 78 76 73 68 63 58 54 51 46 39 34 32 29 28
39 40 40 40 41 42 43 45 46 47 48 49 50 51 52 54 55 57 62 65 66 64 62 67 69 72 74 75 77 75 73 71 67 62 57 53 51 49 42 35 32 30 28 25
39 40 40 42 43 44 45 46 48 49 50 50 52 53 55 57 59 62 63 62 63 64 66 69 72 74 74 73 72 71 70 66 62 57 53 51 50 46 40 33 31 29 28 27
39 41 43 44 44 46 47 48 49 49 50 52 55 57 58 61 62 63 63 64 63 66 70 70 70 69 69 70 70 68 64 61 58 55 51 48 48 45 39 33 31 31 31 31
41 42 44 45 47 48 48 49 50 52 54 55 57 60 62 63 64 64 64 63 64 65 63 65 66 68 70 70 68 65 61 59 56 53 50 47 46 44 38 33 32 32 32 31
44 45 46 46 47 48 50 52 54 55 57 58 60 62 63 64 63 62 61 60 57 59 63 67 68 71 71 68 65 62 58 56 53 50 48 46 45 43 38 34 33 33 32 32
43 44 45 46 48 51 53 54 56 59 61 62 62 62 61 60 59 57 54 55 59 63 67 71 72 72 70 67 64 60 56 53 50 48 47 45 44 42 37 34 34 34 34 33
44 45 47 50 52 55 58 59 61 60 60 59 58 57 54 51 52 52 55 57 63 69 75 78 76 72 68 65 62 58 53 50 49 47 45 44 42 40 36 34 34 34 35 35
47 50 53 55 58 59 59 58 57 57 56 54 51 50 51 49 52 57 61 64 68 75 78 82 76 69 65 60 56 53 49 49 50 48 45 43 41 40 36 34 35 35 34 34
53 56 58 57 56 54 54 54 53 52 48 48 49 50 53 56 59 62 68 74 76 79 86 78 68 62 60 59 54 51 51 52 51 49 45 42 40 38 36 35 36 36 35 35
53 52 52 53 54 54 54 54 51 47 48 51 54 56 60 63 67 71 71 76 81 88 81 70 65 62 60 59 57 55 54 53 51 49 46 42 39 37 36 36 36 37 37 35
50 51 53 53 53 53 51 47 49 51 53 57 61 64 66 66 68 76 81 82 89 81 72 67 64 60 58 57 55 53 51 49 48 46 44 42 39 37 36 36 36 37 37 37
52 53 54 54 53 50 49 51 53 55 58 61 64 68 71 74 77 78 81 89 79 73 68 63 59 56 54 52 51 49 47 46 44 43 42 42 40 38 37 37 37 36 37 38
55 54 53 52 51 52 52 53 55 58 61 65 67 70 73 76 81 84 88 80 73 66 63 61 59 57 54 53 51 49 47 45 44 43 41 41 41 39 36 36 37 38 40 40
52 51 50 50 51 52 53 56 60 62 65 68 70 74 78 82 87 83 78 70 65 63 61 59 55 53 52 51 49 47 44 43 42 41 41 40 40 37 37 38 39 40 40 42
Wind_Direction
236 237 235 236 238 242 248 253 260 267 273 283 284 287 292 293 294 296 298 301 302 301 301 301 300 303 305 306 306 307 309 308 307 307 307 308 309 309 311 312 314 315 315 316
237 244 243 242 246 250 256 261 266 272 276 279 284 288 290 291 293 295 298 300 300 301 302 301 301 303 304 305 307 309 308 308 308 307 307 308 309 311 314 315 315 316 318 317
236 243 246 251 261 259 261 265 270 274 277 281 282 286 288 291 292 295 297 298 299 300 300 301 301 303 305 307 309 308 307 308 307 307 308 309 312 315 316 316 318 319 318 316
245 249 256 262 260 265 267 268 271 274 278 281 283 286 288 289 292 294 295 297 299 300 301 302 303 305 307 307 307 306 307 307 308 308 309 312 315 318 317 318 319 319 317 317
253 255 264 266 266 268 270 272 275 276 279 281 284 287 289 291 292 294 297 299 300 301 302 303 305 306 305 305 305 307 308 308 309 309 311 313 315 318 318 319 319 318 318 317
263 267 269 270 269 270 272 276 275 279 282 285 287 288 289 291 294 296 297 299 300 302 304 305 305 304 304 306 309 308 308 309 309 311 312 314 317 317 318 319 318 318 318 317
268 272 273 277 279 280 283 283 287 287 288 288 288 290 292 294 295 296 298 300 302 303 304 304 304 305 306 309 306 307 308 310 310 312 314 315 316 318 319 319 317 318 317 314
274 277 280 282 284 284 288 289 290 290 290 290 291 292 293 294 296 297 298 300 301 302 303 304 305 307 307 302 304 308 310 311 313 314 315 317 318 319 319 317 317 318 316 312
278 280 282 284 287 290 290 290 291 291 292 293 293 294 294 296 297 298 300 301 302 304 305 305 307 307 299 301 308 310 311 312 313 314 316 318 318 318 317 317 318 318 315 310
281 280 284 288 289 290 292 291 291 292 293 294 295 297 298 299 300 301 302 303 304 305 306 307 303 299 303 307 308 308 309 311 313 314 317 317 318 317 316 316 318 317 313 309
284 284 286 288 289 290 290 291 292 292 293 295 296 298 298 299 300 300 302 303 303 304 303 300 298 302 304 303 306 307 310 312 314 315 316 317 317 316 316 317 316 315 311 309
284 285 286 287 288 288 289 291 292 294 296 297 297 297 298 298 298 300 301 302 305 304 300 299 302 303 302 304 307 309 311 313 314 314 316 317 316 316 316 315 315 313 310 308
285 287 288 288 290 291 292 293 294 295 295 295 296 296 297 299 300 303 302 300 298 298 300 302 301 301 304 306 308 309 311 312 314 316 316 316 316 316 314 311 310 310 314 310
286 287 287 290 290 291 292 293 293 294 295 296 296 297 298 299 299 298 299 300 301 301 298 300 303 304 305 307 309 311 312 314 316 315 315 315 315 314 311 305 304 306 309 315
285 286 288 288 289 291 291 292 294 295 297 298 298 299 300 301 300 300 301 300 299 300 300 301 303 305 307 309 311 313 315 316 315 315 315 313 314 313 307 299 298 300 303 307
283 284 286 287 289 291 293 295 297 298 298 298 299 301 301 300 300 300 300 301 301 299 300 303 306 309 311 312 313 315 316 315 314 313 312 311 313 312 304 294 292 295 298 301
283 285 287 289 290 293 296 297 297 297 298 300 301 301 300 298 300 301 301 301 301 303 307 309 312 313 314 315 315 315 315 314 312 311 310 309 311 311 302 292 289 291 294 296
284 287 289 291 293 295 296 297 298 300 300 300 298 298 299 300 300 300 302 304 307 310 312 314 317 317 316 315 314 314 313 311 310 310 309 309 310 309 302 290 285 287 290 293
286 289 291 292 294 296 297 298 298 298 298 298 299 300 300 301 302 304 306 310 314 316 318 320 319 316 314 312 311 310 310 310 309 309 308 307 307 307 300 290 284 283 285 289
287 288 291 294 295 295 296 297 298 298 298 299 300 302 303 304 307 309 312 317 318 318 320 321 318 314 311 310 308 307 306 308 309 308 308 307 306 305 297 287 284 284 284 285
290 292 293 294 296 297 298 298 298 299 300 302 304 305 306 304 308 312 315 316 317 317 319 319 316 312 311 311 310 307 305 306 308 307 306 305 304 302 296 288 284 284 283 285
295 296 297 297 297 298 299 301 303 305 304 303 304 304 304 307 309 312 312 314 316 316 317 317 313 311 310 309 310 308 307 306 306 305 304 302 301 298 293 286 283 282 282 283
296 296 297 298 300 302 303 303 303 303 302 304 304 305 307 307 308 309 311 313 314 315 316 312 311 309 306 305 305 303 302 301 301 300 300 300 297 294 290 285 282 282 283 285
297 298 300 302 302 300 302 301 301 302 302 304 305 306 307 306 309 311 313 314 315 315 312 311 309 307 304 303 301 300 299 298 297 297 296 295 294 291 286 283 282 283 285 286
301 300 298 298 298 298 298 299 299 301 303 304 305 306 307 308 310 311 312 314 314 313 312 311 310 308 306 304 302 301 299 297 296 294 292 291 291 289 285 281 278 279 283 286
296 295 296 296 295 296 297 297 299 301 302 303 305 306 309 310 312 312 314 313 314 313 312 311 310 308 306 304 301 300 298 295 293 292 291 289 288 287 282 281 280 278 279 282
294 294 294 294 294 295 297 300 301 303 305 306 308 310 311 311 312 313 313 314 313 313 312 312 310 308 306 304 302 300 298 295 293 291 290 288 287 283 282 281 279 280 281 282
Height
5751 5753 5754 5756 5757 5758 5760 5761 5760 5762 5759 5756 5751 5751 5750 5746 5742 5739 5735 5730 5725 5719 5714 5709 5702 5695 5689 5682 5676 5669 5661 5653 5645 5637 5628 5619 5608 5597 5585 5573 5560 5547 5533 5519
5746 5748 5749 5751 5752 5754 5755 5755 5754 5752 5753 5748 5745 5743 5741 5738 5734 5729 5725 5720 5714 5708 5702 5696 5690 5684 5678 5671 5664 5656 5648 5640 5632 5623 5613 5603 5592 5581 5568 5556 5543 5530 5515 5499
5743 5743 5744 5747 5750 5748 5748 5748 5747 5744 5744 5740 5737 5735 5732 5728 5724 5719 5714 5709 5703 5697 5691 5685 5679 5673 5666 5658 5650 5643 5635 5626 5618 5608 5598 5587 5576 5564 5552 5540 5526 5512 5498 5483
5739 5739 5739 5744 5742 5741 5740 5740 5738 5736 5733 5731 5728 5725 5722 5718 5713 5708 5703 5698 5692 5686 5680 5674 5667 5660 5652 5645 5638 5629 5621 5613 5603 5593 5582 5571 5560 5548 5535 5522 5509 5495 5480 5468
5733 5734 5734 5736 5736 5734 5732 5733 5729 5726 5724 5721 5718 5715 5711 5706 5702 5697 5691 5686 5680 5674 5668 5661 5654 5647 5640 5632 5624 5616 5607 5598 5588 5578 5567 5555 5544 5531 5518 5506 5491 5477 5466 5454
5728 5727 5727 5729 5728 5727 5725 5723 5721 5718 5715 5712 5708 5704 5699 5695 5690 5685 5679 5673 5667 5661 5655 5648 5641 5634 5627 5618 5609 5601 5592 5583 5572 5562 5552 5540 5528 5515 5503 5490 5475 5463 5452 5441
5721 5720 5720 5720 5719 5717 5717 5716 5711 5708 5705 5701 5697 5693 5688 5683 5678 5672 5666 5660 5655 5649 5642 5635 5628 5620 5612 5604 5596 5587 5577 5568 5557 5546 5535 5523 5511 5499 5486 5474 5462 5451 5440 5431
5715 5713 5712 5711 5710 5709 5707 5703 5700 5696 5693 5689 5685 5680 5675 5670 5665 5660 5654 5648 5642 5635 5629 5622 5614 5606 5599 5591 5582 5573 5562 5552 5541 5530 5518 5507 5495 5482 5469 5458 5447 5438 5429 5421
5710 5707 5704 5702 5700 5698 5696 5692 5688 5684 5680 5676 5672 5667 5663 5658 5653 5647 5641 5635 5628 5622 5615 5608 5601 5594 5587 5577 5567 5557 5546 5535 5525 5514 5502 5490 5479 5466 5454 5444 5434 5426 5418 5412
5700 5698 5695 5693 5690 5687 5684 5681 5677 5673 5668 5663 5659 5655 5650 5645 5639 5634 5628 5621 5615 5608 5601 5595 5588 5581 5572 5562 5552 5541 5531 5520 5508 5497 5486 5474 5462 5451 5441 5432 5423 5415 5409 5403
5691 5688 5685 5683 5680 5676 5672 5668 5665 5661 5657 5652 5647 5642 5637 5632 5627 5621 5615 5608 5602 5596 5589 5582 5573 5564 5555 5546 5536 5525 5514 5503 5493 5482 5470 5459 5448 5438 5429 5420 5413 5406 5400 5395
5680 5678 5675 5672 5668 5665 5661 5657 5653 5650 5645 5640 5635 5630 5626 5620 5614 5608 5602 5596 5588 5581 5574 5566 5557 5548 5539 5528 5518 5508 5498 5487 5477 5466 5454 5444 5434 5426 5418 5410 5404 5398 5392 5387
5668 5665 5662 5659 5656 5653 5650 5646 5642 5638 5633 5628 5623 5618 5612 5607 5601 5594 5588 5582 5575 5568 5559 5550 5541 5532 5522 5512 5502 5492 5482 5471 5460 5449 5439 5430 5422 5414 5406 5400 5396 5391 5386 5380
5656 5653 5650 5648 5645 5641 5638 5634 5629 5625 5621 5616 5610 5605 5600 5594 5588 5582 5575 5567 5558 5550 5543 5534 5524 5514 5505 5496 5486 5476 5465 5454 5444 5434 5425 5417 5410 5403 5396 5391 5387 5383 5379 5374
5645 5642 5639 5636 5632 5629 5625 5621 5617 5612 5608 5602 5597 5592 5586 5579 5573 5566 5558 5550 5541 5533 5525 5517 5507 5497 5488 5478 5469 5459 5448 5438 5428 5421 5413 5405 5398 5391 5385 5381 5378 5375 5371 5367
5634 5631 5628 5624 5621 5617 5613 5609 5604 5599 5594 5589 5583 5577 5571 5564 5556 5549 5541 5533 5525 5516 5507 5500 5491 5481 5471 5461 5452 5442 5433 5424 5414 5407 5400 5394 5386 5380 5374 5371 5368 5365 5362 5359
5622 5619 5616 5612 5608 5605 5601 5596 5591 5586 5581 5575 5568 5561 5554 5547 5540 5532 5524 5517 5509 5500 5491 5483 5477 5465 5454 5444 5435 5426 5418 5409 5401 5394 5387 5381 5375 5368 5363 5360 5358 5355 5353 5350
5610 5607 5603 5600 5597 5593 5588 5583 5578 5572 5565 5559 5553 5546 5539 5531 5524 5516 5508 5501 5493 5486 5475 5467 5459 5448 5437 5428 5419 5411 5403 5396 5388 5381 5375 5369 5363 5357 5352 5349 5347 5345 5343 5341
5599 5596 5592 5588 5584 5579 5574 5568 5563 5557 5551 5544 5536 5529 5522 5514 5508 5501 5494 5488 5478 5468 5462 5451 5441 5430 5420 5412 5403 5396 5388 5381 5375 5368 5362 5356 5351 5345 5341 5338 5336 5335 5333 5330
5587 5584 5580 5575 5571 5565 5560 5553 5547 5540 5534 5527 5520 5514 5507 5499 5493 5487 5480 5474 5462 5449 5441 5432 5423 5413 5403 5394 5387 5380 5373 5367 5361 5355 5349 5343 5339 5334 5330 5327 5325 5323 5321 5319
5574 5570 5566 5561 5555 5549 5542 5536 5529 5523 5517 5511 5505 5499 5493 5487 5480 5471 5462 5455 5448 5435 5427 5416 5404 5393 5384 5377 5370 5364 5358 5352 5347 5341 5336 5331 5326 5322 5318 5316 5314 5312 5310 5308
5559 5554 5549 5544 5538 5532 5526 5520 5514 5507 5501 5496 5491 5485 5479 5471 5464 5458 5446 5434 5429 5419 5407 5396 5385 5377 5369 5360 5354 5349 5343 5338 5332 5327 5322 5318 5314 5310 5306 5304 5302 5300 5298 5296
5543 5538 5532 5527 5522 5516 5510 5504 5499 5493 5488 5482 5476 5470 5463 5455 5445 5436 5434 5424 5410 5399 5387 5377 5369 5360 5352 5344 5339 5333 5327 5322 5317 5312 5308 5304 5300 5297 5294 5291 5290 5288 5286 5284
5528 5523 5518 5512 5507 5502 5496 5491 5486 5480 5475 5468 5460 5452 5445 5440 5434 5417 5407 5398 5389 5377 5367 5358 5349 5342 5334 5327 5321 5316 5311 5306 5301 5297 5293 5289 5286 5284 5281 5279 5277 5275 5273 5271
5514 5509 5504 5499 5493 5488 5484 5479 5473 5467 5461 5454 5446 5437 5428 5418 5410 5405 5392 5380 5368 5356 5346 5339 5331 5323 5316 5310 5304 5300 5295 5290 5286 5282 5278 5275 5272 5270 5268 5266 5264 5263 5261 5259
5499 5494 5489 5484 5479 5475 5470 5465 5460 5454 5448 5441 5431 5422 5412 5402 5391 5380 5370 5358 5348 5338 5328 5320 5313 5305 5299 5293 5287 5283 5278 5274 5271 5267 5264 5261 5258 5256 5254 5252 5250 5249 5247 5245
5485 5480 5475 5471 5466 5461 5455 5450 5444 5438 5430 5422 5414 5403 5394 5383 5372 5360 5348 5338 5328 5319 5311 5303 5296 5288 5282 5276 5270 5266 5262 5259 5255 5252 5249 5246 5244 5242 5240 5238 5236 5234 5233 5231